TRANSPORTER-15 V (66685 NORAD) Tracking and Keplerian Element Data

This shows tracking and keplerian element data for the satellite.

Feedback or suggestion? Click here.




ElementValue
Catalog66685
NameTRANSPORTER-15 V
Epoch Orbit316
Epoch Day353.59977146
Epoch Year2025
RAAN65.2408
Inclination97.4431
Eccentricity0.0003974
Argument of Perigee278.7845
Mean Anonmoly81.2938
Mean Motion15.17380939
Decay Rate9.795E-05
L11 66685U 25276V 25353.59977146 .00009795 00000+0 49331-3 0 9991
L22 66685 97.4431 65.2408 0003974 278.7845 81.2938 15.17380939 3167



Live tracking and technical data element details for TRANSPORTER-15 V (NORAD 66685). TRANSPORTER-15 V can be tracked NOW for your location showing map with azimuth and elevation plus other details from your city location.







IsCatalogInMostPopularTable: catalog: 66685, numindb: 18
Update: records affected: 1



GetName: 66685 TRANSPORTER-15 V

Hit Count: updated at: Mon, 20 Apr 2026 10:39:53 GMT